Location: Newark
(54.6833°N, 25.2833°E)
Time: 05:49:15
(UTC+00:00)

Altair - Pass Details

Date: 13 November 2019
Orbit: 1502 x 1682 km, 47.2° (Epoch: 12 December)

Event Time Altitude Azimuth Distance (km) Brightness Sun altitude
Rises 02:29:06 0° 209° (SSW) 4,627 - -28.0°
Reaches altitude 10° 02:32:35 10° 199° (SSW) 3,647 - -27.5°
Exits shadow 02:32:45 11° 198° (SSW) 3,602 9.2 -27.5°
Maximum altitude 02:40:05 30° 143° (SE) 2,464 8.8 -26.4°
Drops below altitude 10° 02:47:41 10° 88° (E) 3,707 10.6 -25.3°
Sets 02:51:13 0° 78° (ENE) 4,715 11.4 -24.8°
